• In Slovakia
  • List of Countries
  • For 7 days
  • Water Temperature
  • Satellite Maps
  • Weather Map
  • Weather Widgets
  • user-avatar
    Login

    Hourly Weather Canberra

    Today, 19 November, Sunday

    Time Temperature Precipitation Wind Pressure Humidity
    00:00 +13°C° 0 mm 2 mps 712 mmHg 97%
    01:00 +12°C° 0 mm 2 mps 712 mmHg 97%
    02:00 +12°C° 0 mm 2 mps 712 mmHg 97%
    03:00 +12°C° 0 mm 2 mps 713 mmHg 97%
    04:00 +11°C° 0 mm 1 mps 713 mmHg 98%
    05:00 +12°C° 0 mm 1 mps 713 mmHg 94%
    06:00 +13°C° 0 mm 2 mps 713 mmHg 91%
    07:00 +15°C° 0 mm 2 mps 714 mmHg 88%
    08:00 +17°C° 0 mm 2 mps 714 mmHg 76%
    09:00 +19°C° 0 mm 3 mps 714 mmHg 64%
    10:00 +21°C° 0 mm 3 mps 714 mmHg 52%
    11:00 +22°C° 0 mm 3 mps 714 mmHg 48%
    12:00 +23°C° 0 mm 4 mps 714 mmHg 45%
    13:00 +25°C° 0 mm 4 mps 714 mmHg 42%
    14:00 +23°C° 0 mm 4 mps 714 mmHg 44%
    15:00 +23°C° 0 mm 4 mps 714 mmHg 47%
    16:00 +23°C° 0 mm 4 mps 714 mmHg 49%
    17:00 +21°C° 0 mm 4 mps 714 mmHg 58%
    18:00 +19°C° 0 mm 3 mps 714 mmHg 68%
    19:00 +17°C° 0 mm 3 mps 714 mmHg 77%
    20:00 +16°C° 0 mm 3 mps 714 mmHg 83%
    21:00 +14°C° 0 mm 3 mps 715 mmHg 89%
    22:00 +14°C° 0 mm 2 mps 715 mmHg 96%
    23:00 +14°C° 0 mm 2 mps 715 mmHg 95%

    Tomorrow, 20 November, Monday

    Time Temperature Precipitation Wind Pressure Humidity
    00:00 +14°C° 0 mm 2 mps 715 mmHg 94%
    01:00 +14°C° 0 mm 2 mps 715 mmHg 93%
    02:00 +13°C° 0 mm 2 mps 715 mmHg 93%
    03:00 +13°C° 0 mm 2 mps 714 mmHg 93%
    04:00 +12°C° 0 mm 1 mps 714 mmHg 93%
    05:00 +13°C° 0 mm 2 mps 715 mmHg 87%
    06:00 +14°C° 0 mm 2 mps 715 mmHg 81%
    07:00 +15°C° 0 mm 2 mps 716 mmHg 76%
    08:00 +17°C° 0 mm 2 mps 716 mmHg 68%
    09:00 +19°C° 0 mm 3 mps 716 mmHg 60%
    10:00 +21°C° 0 mm 3 mps 716 mmHg 52%
    11:00 +22°C° 0 mm 3 mps 716 mmHg 48%
    12:00 +24°C° 0 mm 3 mps 716 mmHg 43%
    13:00 +26°C° 0 mm 3 mps 716 mmHg 39%
    14:00 +25°C° 0 mm 3 mps 715 mmHg 41%
    15:00 +25°C° 0 mm 3 mps 715 mmHg 43%
    16:00 +25°C° 0 mm 4 mps 715 mmHg 44%
    17:00 +22°C° 0 mm 3 mps 714 mmHg 56%
    18:00 +19°C° 0 mm 3 mps 714 mmHg 67%
    19:00 +17°C° 0 mm 3 mps 714 mmHg 79%
    20:00 +16°C° 0 mm 3 mps 715 mmHg 85%
    21:00 +15°C° 0 mm 2 mps 715 mmHg 90%
    22:00 +13°C° 0 mm 2 mps 715 mmHg 96%
    23:00 +13°C° 0 mm 2 mps 715 mmHg 96%

    Day after tomorrow, 21 November, Tuesday

    Time Temperature Precipitation Wind Pressure Humidity
    00:00 +13°C° 0 mm 2 mps 715 mmHg 95%
    01:00 +13°C° 0 mm 1 mps 715 mmHg 95%
    02:00 +12°C° 0 mm 1 mps 714 mmHg 95%
    03:00 +12°C° 0 mm 1 mps 714 mmHg 95%
    04:00 +11°C° 0 mm 1 mps 714 mmHg 95%
    05:00 +12°C° 0 mm 2 mps 714 mmHg 88%
    06:00 +14°C° 0 mm 2 mps 715 mmHg 81%
    07:00 +16°C° 0 mm 2 mps 715 mmHg 74%
    08:00 +18°C° 0 mm 2 mps 715 mmHg 64%
    09:00 +20°C° 0 mm 3 mps 715 mmHg 54%
    10:00 +22°C° 0 mm 3 mps 715 mmHg 44%
    11:00 +24°C° 0 mm 3 mps 715 mmHg 41%
    12:00 +25°C° 0 mm 3 mps 715 mmHg 38%
    13:00 +26°C° 0 mm 3 mps 714 mmHg 35%
    14:00 +26°C° 0 mm 3 mps 714 mmHg 36%
    15:00 +25°C° 0 mm 3 mps 713 mmHg 38%
    16:00 +25°C° 0 mm 4 mps 713 mmHg 40%
    17:00 +22°C° 0 mm 3 mps 713 mmHg 50%
    18:00 +20°C° 0 mm 3 mps 713 mmHg 60%
    19:00 +17°C° 0 mm 3 mps 713 mmHg 70%
    20:00 +16°C° 0 mm 3 mps 713 mmHg 79%
    21:00 +15°C° 0 mm 2 mps 713 mmHg 87%
    22:00 +13°C° 0 mm 2 mps 713 mmHg 95%
    23:00 +13°C° 0 mm 2 mps 713 mmHg 94%

    22 November, Wednesday

    Time Temperature Precipitation Wind Pressure Humidity
    00:00 +13°C° 0 mm 2 mps 713 mmHg 94%
    01:00 +13°C° 0 mm 1 mps 712 mmHg 93%
    02:00 +12°C° 0 mm 1 mps 712 mmHg 95%
    03:00 +12°C° 0 mm 1 mps 712 mmHg 96%
    04:00 +11°C° 0 mm 1 mps 711 mmHg 97%
    05:00 +13°C° 0 mm 1 mps 712 mmHg 91%
    06:00 +14°C° 0 mm 1 mps 712 mmHg 85%
    07:00 +16°C° 0 mm 1 mps 712 mmHg 79%
    08:00 +18°C° 0 mm 2 mps 712 mmHg 67%
    09:00 +20°C° 0 mm 2 mps 713 mmHg 56%
    10:00 +23°C° 0 mm 2 mps 713 mmHg 44%
    11:00 +24°C° 0 mm 2 mps 712 mmHg 41%
    12:00 +25°C° 0 mm 2 mps 712 mmHg 37%
    13:00 +27°C° 0 mm 2 mps 711 mmHg 33%
    14:00 +26°C° 0.1 mm 2 mps 710 mmHg 35%
    15:00 +26°C° 0.1 mm 2 mps 710 mmHg 37%
    16:00 +25°C° 0.1 mm 2 mps 709 mmHg 39%
    17:00 +23°C° 0.3 mm 2 mps 709 mmHg 50%
    18:00 +20°C° 0.3 mm 2 mps 709 mmHg 61%
    19:00 +17°C° 0.3 mm 3 mps 709 mmHg 72%
    20:00 +16°C° 0 mm 2 mps 709 mmHg 79%
    21:00 +15°C° 0 mm 2 mps 709 mmHg 87%
    22:00 +13°C° 0 mm 1 mps 709 mmHg 94%
    23:00 +13°C° 0 mm 1 mps 709 mmHg 95%

    23 November, Thursday

    Time Temperature Precipitation Wind Pressure Humidity
    00:00 +12°C° 0 mm 1 mps 708 mmHg 96%
    01:00 +12°C° 0 mm 1 mps 708 mmHg 97%
    02:00 +12°C° 0 mm 1 mps 708 mmHg 96%
    03:00 +12°C° 0 mm 1 mps 708 mmHg 96%
    04:00 +11°C° 0 mm 1 mps 707 mmHg 96%
    05:00 +13°C° 0 mm 1 mps 708 mmHg 87%
    06:00 +15°C° 0 mm 1 mps 709 mmHg 79%
    07:00 +19°C° 0 mm 1 mps 709 mmHg 71%
    08:00 +21°C° 0.1 mm 1 mps 709 mmHg 63%
    09:00 +21°C° 0.1 mm 2 mps 709 mmHg 56%
    10:00 +24°C° 0.1 mm 2 mps 709 mmHg 49%
    11:00 +24°C° 0.4 mm 2 mps 709 mmHg 51%
    12:00 +24°C° 0.4 mm 2 mps 708 mmHg 54%
    13:00 +23°C° 0.4 mm 2 mps 708 mmHg 57%
    14:00 +24°C° 0 mm 2 mps 708 mmHg 53%
    15:00 +25°C° 0 mm 2 mps 708 mmHg 48%
    16:00 +25°C° 0 mm 2 mps 707 mmHg 44%
    17:00 +23°C° 0 mm 1 mps 708 mmHg 50%
    18:00 +21°C° 0 mm 1 mps 708 mmHg 57%
    19:00 +19°C° 0 mm 1 mps 708 mmHg 63%
    20:00 +18°C° 0.4 mm 1 mps 708 mmHg 70%
    21:00 +16°C° 0.4 mm 1 mps 708 mmHg 76%
    22:00 +15°C° 0.4 mm 1 mps 708 mmHg 82%
    23:00 +15°C° 0 mm 1 mps 708 mmHg 84%

    24 November, Friday

    Time Temperature Precipitation Wind Pressure Humidity
    00:00 +14°C° 0 mm 1 mps 708 mmHg 85%
    01:00 +14°C° 0 mm 1 mps 707 mmHg 86%
    02:00 +14°C° 0 mm 1 mps 707 mmHg 86%
    03:00 +14°C° 0 mm 1 mps 707 mmHg 86%
    04:00 +14°C° 0 mm 1 mps 707 mmHg 85%
    05:00 +16°C° 0 mm 1 mps 708 mmHg 77%
    06:00 +19°C° 0 mm 1 mps 709 mmHg 70%
    07:00 +21°C° 0 mm 1 mps 709 mmHg 62%
    08:00 +23°C° 0 mm 2 mps 709 mmHg 52%
    09:00 +26°C° 0 mm 2 mps 709 mmHg 42%
    10:00 +28°C° 0 mm 3 mps 710 mmHg 31%
    11:00 +29°C° 0 mm 3 mps 709 mmHg 31%
    12:00 +29°C° 0 mm 3 mps 709 mmHg 30%
    13:00 +29°C° 0 mm 2 mps 709 mmHg 30%
    14:00 +29°C° 0 mm 2 mps 709 mmHg 31%
    15:00 +28°C° 0 mm 2 mps 708 mmHg 33%
    16:00 +28°C° 0 mm 2 mps 708 mmHg 35%
    17:00 +26°C° 0 mm 2 mps 708 mmHg 41%
    18:00 +23°C° 0 mm 2 mps 708 mmHg 48%
    19:00 +20°C° 0 mm 2 mps 708 mmHg 54%
    20:00 +20°C° 0 mm 1 mps 709 mmHg 60%
    21:00 +19°C° 0 mm 1 mps 709 mmHg 65%
    22:00 +16°C° 0 mm 1 mps 709 mmHg 70%
    23:00 +16°C° 0 mm 1 mps 709 mmHg 71%
    Show more